Location: Gaast
(52.9002°N, 5.8891°E)
Time: 22:53:47
(UTC+00:00)

MOS 1 Rocket - Pass Details

Date: 18 November 2025
Orbit: 610 x 813 km, 97.4° (Epoch: 04 December)

Event Time Altitude Azimuth Distance (km) Brightness Sun altitude
Rises 17:39:49 0° 173° (S) 2,884 6.5 -18.1°
Reaches altitude 10° 17:41:59 10° 177° (S) 1,999 5.7 -18.4°
Maximum altitude 17:46:17 64° 259° (W) 719 3.6 -19.0°
Drops below altitude 10° 17:50:51 10° 341° (NNW) 2,111 5.9 -19.7°
Sets 17:53:10 0° 345° (NNW) 3,062 6.7 -20.1°
